Regional Weather Roundup
Issued by NWS Charleston, SC

Current Version | Previous Version | Graphics & Text | Print | Product List | Glossary On
Versions: 1 2 3 4 5 6 7 8 9 10 11 12 13 14 15 16 17 18 19 20 21 22 23 24 25 26 27 28 29 30 31 32 33 34 35 36 37 38 39 40 41 42 43 44 45 46 47 48 49 50
000
ASUS42 KCHS 190412
RWRCHS

Regional Weather Roundup
National Weather Service Charleston SC
1100 PM EST THU JAN 18 2018

NOTE: "fair" indicates few or no clouds below 12,000 feet with no
significant weather and/or obstructions to visibility.

Not all stations are quality controlled. Use data with caution,
especially dewpoint observations.

SCZ027-030-031-034>040-042>050-190500-
...Southeast South Carolina...

CITY           SKY/WX    TMP DP  RH WIND       PRES   REMARKS
N Charleston   FAIR      31  19  61 S6        30.33S WCI  25
Waterfront Prk NOT AVBL
Mount Pleasant FAIR      32  23  69 CALM      30.33S
Johns Island   FAIR      30  19  64 CALM      30.34S
Pinopolis        N/A     37  19  48 SW7       30.24R WCI  32
Moncks Corner  FAIR      27  19  74 CALM      30.32S
Summerville    FAIR      28  21  74 CALM      30.34S
Beaufort MCAS  FAIR      33  24  69 SW3       30.35S
Beaufort Arpt  FAIR      32  28  86 W3        30.34S
Hilton Head Is FAIR      30  23  74 CALM      30.36S
Walterboro     FAIR      28  23  80 CALM      30.34S
Allendale      FAIR      30  23  74 CALM      30.33S

...Southern Midlands and Pee Dee...

CITY           SKY/WX    TMP DP  RH WIND       PRES   REMARKS
Georgetown     FAIR      28  21  74 SW3       30.32S
Kingstree      FAIR      27  21  80 CALM      30.30S
Orangeburg     FAIR      30  21  69 SW3       30.31S
Barnwell         N/A     28  21  74 CALM      30.32S
Aiken          FAIR      30  16  55 SW7       30.32F WCI  23
Manning        FAIR      28  21  74 MISG      30.31S
Columbia       FAIR      29  24  82 CALM      30.30S
Sumter         FAIR      31  20  61 CALM      30.27F
Florence       FAIR      30  18  60 CALM      30.29S
Myrtle Beach   FAIR      33  17  51 NW5       30.30F WCI  29
N Myrtle Beach FAIR      31  20  63 CALM      30.29S

$$

GAZ063-065-086>088-099>101-113>116-118-119-134>141-150-190500-
...Southeast Georgia...

CITY           SKY/WX    TMP DP  RH WIND       PRES   REMARKS
Savannah Arpt  FAIR      32  16  51 CALM      30.36S
Hunter AAF     FAIR      28  18  67 W5        30.33S WCI  23
Fort Stewart   FAIR      28  18  65 CALM      30.34F
Statesboro     FAIR      28  20  74 CALM      30.34F
Sylvania       FAIR      30  22  72 CALM      30.35S
Claxton        FAIR      28  23  81 CALM      30.36F

...CSRA, Central and far Southeast Georgia...

CITY           SKY/WX    TMP DP  RH WIND       PRES   REMARKS
Thomson        FAIR      29  15  55 CALM      30.35S
Augusta-Bush   FAIR      26  18  71 S3        30.32S
Augusta-Daniel FAIR      36  15  42 CALM      30.31S
Swainsboro     FAIR      30  25  80 CALM      30.35F
Vidalia        FAIR      32  23  69 W3        30.35S
Eastman        FAIR      28  18  68 CALM      30.40R
Hazlehurst     FAIR      31  19  60 CALM      30.35S
Alma           FAIR      28  22  78 CALM      30.37R
Waycross       FAIR      29  20  70 CALM      30.37F
Jesup          NOT AVBL
Baxley         FAIR      28  21  74 CALM      30.36S
Brunswick      FAIR      30  27  86 CALM      30.39R
Saint Simons   FAIR      33  24  69 CALM      30.38R

$$

SCZ027-028-034-036>038-045-046-048>050-GAZ119-141-190500-
...Lake and Supplemental Coastal Observations...

STATION/POSITION TIME  TEMP    WIND        PRES    WAVE   SWELL
                       AIR SEA DIR/SP/G            HT/PER HT/PER/DIR
                 (UTC) (F)     (DEG/KT/KT) (MB)    (FT/S) (FT/S/D)
Winyah Bay       0245   35     290/  2     1026.0
Lake Murray      0320   40     250/  6/  8 1024.7S
ACE Basin NERRS  0245   31        CALM     1027.0
Fort Pulaski     0348   39 45  250/  3/  4 1028.1R
Sapelo Island    0300   32        CALM     1028.0

$$

ANZ835-935-AMZ111-154-330-350-352-354-370-450-454-472-190500-
...C-MAN and Buoy Observations...

STATION/POSITION TIME  TEMP    WIND        PRES    WAVE   SWELL
                       AIR SEA DIR/SP/G            HT/PER HT/PER/DIR
                 (UTC) (F)     (DEG/KT/KT) (MB)    (FT/S) (FT/S/D)
Buoy 41004       0350   48 69  300/ 14/ 17 1026.5S   3/ 4   2/ 90/10
Buoy 41008       0350   47 51  280/ 12/ 14 1028.0R   2/11   2/ 70/11
Folly Beach CMAN 0400   37     250/  4/  5 1027.4F
Capers Nearshore 0308   38 48  300/ 10/ 14 1026.4R
Fripp Nearshore  0308   41 47  270/  6/  8 1026.7R


STATION/POSITION TIME  TEMP    WIND        PRES    WAVE   SWELL
                       AIR SEA DIR/SP/G            HT/PER HT/PER/DIR
                 (UTC) (F)     (DEG/KT/KT) (MB)    (FT/S) (FT/S/D)
5E St. Marys GA  0400      49                N/A     3/12   2/100/12
Frying Pan Buoy  0350   46 64  300/ 16/ 19 1025.3R   4/11   3/ 90/11
Buoy 41025       0400   41     290/ 19/ 23 1023.5
Cape Lookout NC  0300          280/ 15/ 17 1024.3R
Buoy 41002       0350   55 70  300/ 10/ 14 1024.3R  10/11  10/ 30/11
Buoy 41010       NOT AVBL
St Augustine FL  0400   41 49  320/  3/  3 1028.6F


$$




USA.gov is the U.S. government's official web portal to all federal, state and local government web resources and services.